Location: Unspecified
(0.0000°N, 0.0000°E)
Time: 18:00:15
(UTC+00:00)

Envisat - Pass Details

Date: 02 October 2021
Orbit: 764 x 766 km, 98.2° (Epoch: 22 October)

Event Time Altitude Azimuth Distance (km) Brightness Sun altitude
Rises 04:48:36 0° 9° (N) 3,212 6.3 -15.2°
Reaches altitude 10° 04:50:54 10° 8° (N) 2,289 5.5 -14.6°
Maximum altitude 04:55:56 78° 282° (WNW) 781 2.9 -13.3°
Drops below altitude 10° 05:01:00 10° 196° (SSW) 2,299 5.4 -12.1°
Sets 05:03:19 0° 194° (SSW) 3,227 6.1 -11.5°
